STARLINK-11133, 59954

Orbit data source: Space-Track

STARLINK-11133, 59954 is a payload satellite owned by SpaceX/Seattle (US) in LEO that was launched on Wed, 05 Jun 2024 UTC via an FALCON 9 launch vehicle from the Air Force Eastern Test Range (AFETR). Payload-class satellites include a variety of spacecraft equipped with specific instruments for various scientific and technological missions. These include communications satellites like Starlink; space stations such as the ISS; scientific satellites like the Hubble; Earth observation satellites from companies like Planet Labs, Umbra, and HawkEye 360; GPS; miniature CubeSats for education and research; and military/defense satellites.

Loading next visibility...
Identifier
59954, 2024-107K
Orbit
LEO
Last TLE update
17 hours ago
Origin
Manufacturer
SpaceX/Seattle
Mission
Operational spacecraft
Bus & Motor
STARLINK V2M, Unknown motor
Mass
730 kg wet, ~700 kg dry
Launch date (UTC)
2024-06-05 (11 months ago)
Launch vehicle
FALCON 9
Launch site
Air Force Eastern Test Range (AFETR)
Object type
Payload
Rocket body
Debris
Shape & HBR
Unknown
Radar Cross Section
Large (>1 m²)

Expand to show TLE details & history

TLE from 17 hours ago
0 STARLINK-11133
1 59954U 24107K   25128.68656708  .00000285  00000-0  71994-5 0  9990
2 59954  53.1577 314.6805 0000575 103.7113 256.3969 15.69711628 54243
Epoch: 2025-05-08T16:28Z
Definitive object data (Epoch: 2025-05-08T16:28:39.395Z)
Latitude
-0.00003°
Longitude
-159.23716°
Altitude
360.728 km
Speed
7.694 km/s
True Right ascension
20h 58m 43s
True Declination
0° 00' 00"
Sunlit
Object was in daylight at TLE epoch
Visualization TLE readout
Latitude
37.79293°
Longitude
-127.4405°
Altitude
362.628 km
Speed
7.697 km/s
Apparent Right ascension
02h 11m 17s
Apparent Declination
0° 19' 51"
Sunlit
Object is in daylight
Visualization observer readout
Local Sidereal Time
17:39:09
Azimuth
63.092° ENE
Elevation
-27.958°
Doppler factor
1
Orbital elements
Apogee altitude
360.371 km
Perigee altitude
359.596 km
Semi-major axis
6,738.12 km
Eccentricity
0.0000575
Inclination
53.1577°
RAAN
314.6805°
Arg. of periapsis
103.7113°
True anomaly
256.3905°
Mean anomaly
256.3969°
Eccentric anomaly
256.3937°
Mean motion
3.92405 °/min
BSTAR
0.0000071994
Orbital period
91.74 mins
Loading maneuver chart data...
Loading SW <> Apogee altitude chart data...
Loading historical data...
Loading historical data...
Loading historical data...
Loading historical data...
Loading historical data...
Loading historical data...
Loading historical data...

STARLINK-11133 Visibility forecast

Observer location: undefined°, undefined°

Span
Click to sort rows by Start time (UTC) header in descending order
Start Az.
Max El. time (UTC)
Max El. Az.
Max El.
End time (UTC)
End Az.
4 mins2025-05-09 22:01:49.614Z295.835° NW2025-05-09 22:03:49.614Z186.099° SSW38.226°2025-05-09 22:05:49.614Z145.052° SSE
|